Retour au catalogue

COSMOS 2054 DEB

ActifGEO
NORAD 21648·DEBRIS·🇷🇺 Russia

Lancé Dec 27, 1989 depuis Baikonur Cosmodrome

Loading…

TLE

FraisSource: Space-Track

Époque: Sep 14, 2026, 12:50 UTC

1 21648U 89101G   26257.53493071 -.00000205  00000-0  00000-0 0  9992
2 21648  13.3327 337.2982 0026715 316.1724  49.5909  0.97852125116644

Suivez COSMOS 2054 DEB en temps réel avec AllMySat

Download on the App Store